When you browse on this site, cookies collect data to enhance your experience and personalize the content and advertising you see.
Visit our Privacy Policy to learn more. By continuing to use the site, you agree to this use of cookies and data.
  • In Austria
  • List of Countries
  • For 7 days
  • Water Temperature
  • Weather Map
  • News
  • Weather Widgets
  • user-avatar
    Login

    Hourly Weather Summit

    Today, 23 February, Sunday

    Time Temperature Precipitation Wind Pressure Humidity
    00:00 +2°C° 0 mm 2 mps 760 mmHg 58%
    01:00 +2°C° 0 mm 2 mps 760 mmHg 59%
    02:00 +1°C° 0 mm 2 mps 760 mmHg 58%
    03:00 +1°C° 0 mm 2 mps 760 mmHg 57%
    04:00 +1°C° 0 mm 2 mps 760 mmHg 56%
    05:00 +1°C° 0 mm 2 mps 760 mmHg 57%
    06:00 -1°C° 0 mm 2 mps 760 mmHg 57%
    07:00 +2°C° 0 mm 1 mps 760 mmHg 55%
    08:00 +3°C° 0 mm 1 mps 760 mmHg 50%
    09:00 +4°C° 0 mm 2 mps 760 mmHg 45%
    10:00 +6°C° 0 mm 2 mps 760 mmHg 40%
    11:00 +7°C° 0 mm 2 mps 760 mmHg 37%
    12:00 +9°C° 0 mm 3 mps 759 mmHg 34%
    13:00 +10°C° 0 mm 3 mps 759 mmHg 31%
    14:00 +10°C° 0 mm 3 mps 758 mmHg 32%
    15:00 +10°C° 0 mm 3 mps 758 mmHg 34%
    16:00 +10°C° 0 mm 3 mps 757 mmHg 35%
    17:00 +9°C° 0 mm 3 mps 758 mmHg 40%
    18:00 +7°C° 0 mm 2 mps 758 mmHg 45%
    19:00 +7°C° 0 mm 1 mps 758 mmHg 50%
    20:00 +6°C° 0 mm 1 mps 758 mmHg 51%
    21:00 +5°C° 0 mm 2 mps 758 mmHg 53%
    22:00 +4°C° 0 mm 2 mps 758 mmHg 54%
    23:00 +4°C° 0 mm 2 mps 757 mmHg 55%

    Tomorrow, 24 February, Monday

    Time Temperature Precipitation Wind Pressure Humidity
    00:00 +4°C° 0 mm 1 mps 757 mmHg 55%
    01:00 +4°C° 0 mm 1 mps 757 mmHg 56%
    02:00 +4°C° 0 mm 1 mps 757 mmHg 58%
    03:00 +3°C° 0 mm 1 mps 757 mmHg 61%
    04:00 +3°C° 0 mm 1 mps 756 mmHg 63%
    05:00 +3°C° 0 mm 1 mps 756 mmHg 65%
    06:00 +3°C° 0 mm 1 mps 756 mmHg 66%
    07:00 +3°C° 0 mm 1 mps 756 mmHg 68%
    08:00 +4°C° 0 mm 1 mps 756 mmHg 62%
    09:00 +6°C° 0 mm 1 mps 756 mmHg 57%
    10:00 +8°C° 0 mm 1 mps 756 mmHg 51%
    11:00 +9°C° 0 mm 2 mps 756 mmHg 48%
    12:00 +10°C° 0 mm 2 mps 756 mmHg 45%
    13:00 +13°C° 0 mm 2 mps 755 mmHg 43%
    14:00 +12°C° 0 mm 2 mps 755 mmHg 45%
    15:00 +12°C° 0 mm 2 mps 755 mmHg 47%
    16:00 +12°C° 0 mm 2 mps 754 mmHg 49%
    17:00 +10°C° 0 mm 2 mps 754 mmHg 53%
    18:00 +10°C° 0 mm 1 mps 754 mmHg 58%
    19:00 +9°C° 0 mm 1 mps 755 mmHg 63%
    20:00 +9°C° 0 mm 1 mps 754 mmHg 65%
    21:00 +8°C° 0 mm 1 mps 754 mmHg 67%
    22:00 +8°C° 0 mm 1 mps 754 mmHg 70%
    23:00 +8°C° 0 mm 1 mps 754 mmHg 73%

    Day after tomorrow, 25 February, Tuesday

    Time Temperature Precipitation Wind Pressure Humidity
    00:00 +8°C° 0 mm 1 mps 754 mmHg 75%
    01:00 +8°C° 0 mm 1 mps 753 mmHg 78%
    02:00 +7°C° 0.3 mm 1 mps 753 mmHg 82%
    03:00 +6°C° 0.3 mm 0 mps 753 mmHg 86%
    04:00 +6°C° 0.3 mm 0 mps 752 mmHg 90%
    05:00 +6°C° 0.2 mm 0 mps 752 mmHg 92%
    06:00 +7°C° 0.2 mm 1 mps 752 mmHg 93%
    07:00 +7°C° 0.2 mm 1 mps 752 mmHg 94%
    08:00 +6°C° 0.2 mm 2 mps 752 mmHg 94%
    09:00 +6°C° 0.2 mm 2 mps 752 mmHg 94%
    10:00 +7°C° 0.2 mm 3 mps 752 mmHg 94%
    11:00 +7°C° 0.5 mm 3 mps 751 mmHg 94%
    12:00 +7°C° 0.5 mm 3 mps 751 mmHg 94%
    13:00 +7°C° 0.5 mm 3 mps 751 mmHg 94%
    14:00 +7°C° 0.7 mm 3 mps 751 mmHg 95%
    15:00 +7°C° 0.7 mm 3 mps 750 mmHg 95%
    16:00 +7°C° 0.7 mm 3 mps 750 mmHg 96%
    17:00 +7°C° 0.2 mm 2 mps 750 mmHg 96%
    18:00 +7°C° 0.2 mm 2 mps 751 mmHg 97%
    19:00 +7°C° 0.2 mm 2 mps 751 mmHg 97%
    20:00 +7°C° 0.1 mm 2 mps 751 mmHg 97%
    21:00 +7°C° 0.1 mm 2 mps 751 mmHg 97%
    22:00 +8°C° 0.1 mm 1 mps 751 mmHg 97%
    23:00 +7°C° 0 mm 2 mps 751 mmHg 97%

    26 February, Wednesday

    Time Temperature Precipitation Wind Pressure Humidity
    00:00 +7°C° 0 mm 2 mps 751 mmHg 97%
    01:00 +7°C° 0 mm 2 mps 751 mmHg 97%
    02:00 +7°C° 0 mm 2 mps 751 mmHg 97%
    03:00 +6°C° 0 mm 2 mps 751 mmHg 96%
    04:00 +6°C° 0 mm 2 mps 751 mmHg 96%
    05:00 +5°C° 0 mm 3 mps 750 mmHg 96%
    06:00 +5°C° 0 mm 3 mps 750 mmHg 96%
    07:00 +5°C° 0 mm 3 mps 750 mmHg 95%
    08:00 +7°C° 0.2 mm 3 mps 750 mmHg 95%
    09:00 +6°C° 0.2 mm 4 mps 749 mmHg 95%
    10:00 +6°C° 0.2 mm 4 mps 749 mmHg 95%
    11:00 +6°C° 0.7 mm 4 mps 748 mmHg 95%
    12:00 +6°C° 0.7 mm 4 mps 747 mmHg 95%
    13:00 +7°C° 0.7 mm 4 mps 745 mmHg 95%
    14:00 +7°C° 0.5 mm 4 mps 744 mmHg 96%
    15:00 +8°C° 0.5 mm 4 mps 743 mmHg 97%
    16:00 +8°C° 0.5 mm 4 mps 741 mmHg 98%
    17:00 +10°C° 0.3 mm 4 mps 741 mmHg 97%
    18:00 +11°C° 0.3 mm 4 mps 740 mmHg 97%
    19:00 +11°C° 0.3 mm 4 mps 740 mmHg 96%
    20:00 +9°C° 0.5 mm 5 mps 740 mmHg 91%
    21:00 +7°C° 0.5 mm 5 mps 740 mmHg 85%
    22:00 +6°C° 0.5 mm 5 mps 741 mmHg 80%
    23:00 +4°C° 0 mm 6 mps 741 mmHg 78%

    27 February, Thursday

    Time Temperature Precipitation Wind Pressure Humidity
    00:00 +4°C° 0 mm 6 mps 742 mmHg 76%
    01:00 +4°C° 0 mm 7 mps 742 mmHg 74%
    02:00 +3°C° 0 mm 6 mps 743 mmHg 71%
    03:00 +2°C° 0 mm 6 mps 743 mmHg 69%
    04:00 +1°C° 0 mm 6 mps 743 mmHg 67%
    05:00 -1°C° 0 mm 6 mps 744 mmHg 64%
    06:00 -2°C° 0 mm 6 mps 745 mmHg 61%
    07:00 -3°C° 0 mm 6 mps 745 mmHg 58%
    08:00 -2°C° 0 mm 6 mps 746 mmHg 56%
    09:00 -1°C° 0 mm 7 mps 746 mmHg 53%
    10:00 0°C° 0 mm 7 mps 747 mmHg 51%
    11:00 0°C° 0 mm 7 mps 746 mmHg 48%
    12:00 +2°C° 0 mm 7 mps 746 mmHg 46%
    13:00 +2°C° 0 mm 7 mps 746 mmHg 43%
    14:00 +2°C° 0 mm 7 mps 746 mmHg 41%
    15:00 +2°C° 0 mm 7 mps 746 mmHg 38%
    16:00 +2°C° 0 mm 7 mps 747 mmHg 35%
    17:00 +2°C° 0 mm 7 mps 747 mmHg 37%
    18:00 0°C° 0 mm 7 mps 748 mmHg 40%
    19:00 -1°C° 0 mm 6 mps 749 mmHg 42%
    20:00 -1°C° 0 mm 6 mps 749 mmHg 41%
    21:00 -2°C° 0 mm 6 mps 749 mmHg 40%
    22:00 -3°C° 0 mm 6 mps 749 mmHg 39%
    23:00 -3°C° 0 mm 6 mps 749 mmHg 38%

    28 February, Friday

    Time Temperature Precipitation Wind Pressure Humidity
    00:00 -4°C° 0 mm 6 mps 749 mmHg 37%
    01:00 -4°C° 0 mm 6 mps 749 mmHg 35%
    02:00 -5°C° 0 mm 6 mps 749 mmHg 37%
    03:00 -5°C° 0 mm 6 mps 749 mmHg 39%
    04:00 -5°C° 0 mm 5 mps 749 mmHg 41%
    05:00 -5°C° 0 mm 6 mps 749 mmHg 42%
    06:00 -6°C° 0 mm 6 mps 749 mmHg 43%
    07:00 -6°C° 0 mm 6 mps 749 mmHg 44%
    08:00 -5°C° 0 mm 6 mps 749 mmHg 41%
    09:00 -5°C° 0 mm 6 mps 749 mmHg 38%
    10:00 -4°C° 0 mm 6 mps 749 mmHg 35%
    11:00 -4°C° 0 mm 6 mps 749 mmHg 34%
    12:00 -3°C° 0 mm 6 mps 748 mmHg 33%
    13:00 -3°C° 0 mm 7 mps 748 mmHg 31%
    14:00 -3°C° 0 mm 6 mps 748 mmHg 33%
    15:00 -3°C° 0 mm 6 mps 748 mmHg 35%
    16:00 -3°C° 0 mm 6 mps 748 mmHg 37%
    17:00 -3°C° 0 mm 6 mps 749 mmHg 40%
    18:00 -4°C° 0 mm 5 mps 749 mmHg 42%
    19:00 -4°C° 0 mm 5 mps 750 mmHg 44%
    20:00 -5°C° 0 mm 5 mps 750 mmHg 44%
    21:00 -6°C° 0 mm 5 mps 750 mmHg 44%
    22:00 -6°C° 0 mm 5 mps 750 mmHg 43%
    23:00 -6°C° 0 mm 5 mps 750 mmHg 44%
    Show more